Hourly Data Report for November 25, 2021

IQALUIT CLIMATE
NUNAVUT
Current Station Operator: ECCC - MSC

63°44'50.000" N
68°32'40.000" W
33.50 m
2402592
71321
XFB

Download Data

Hourly Data (November 2021)
Hourly Data Report for November 25, 2021
TIME
LST
Temp Definition
°C
Dew Point Definition
°C
Rel Hum Definition
%
Precip. Amount Definition
mm

Wind Dir Definition
10's deg

Wind Spd Definition
km/h
Visibility Definition
km
Stn Press Definition
kPa
Hmdx Definition


Wind Chill Definition


Weather Definition


00:00 -2.0 -6.1 73 0.0 18 35   100.92   -10 LegendNANA
01:00 -1.8 -6.3 71 0.0 17 23   100.98   -8 LegendNANA
02:00 -1.7 -5.8 74 0.0 17 24   101.05   -8 LegendNANA
03:00 -2.7 -7.4 70 0.0 21 36   101.17   -11 LegendNANA
04:00 -2.7 -8.1 67 0.0 19 24   101.24   -9 LegendNANA
05:00 -2.9 -7.2 72 0.0 19 20   101.26   -9 LegendNANA
06:00 -3.1 -8.8 65 0.0 19 25   101.27   -10 LegendNANA
07:00 -2.9 -9.6 60 0.0 19 34   101.31   -11 LegendNANA
08:00 -2.7 -9.1 61 0.0 20 37   101.32   -11 LegendNANA
09:00 -3.1 -8.5 66 0.0 18 37   101.37   -11 LegendNANA
10:00 -3.3 -7.6 72 0.0 18 29   101.42   -11 LegendNANA
11:00 -3.4 -6.7 78 0.0 17 32   101.40   -11 LegendNANA
12:00 -3.6 -6.8 78 0.0 18 29   101.40   -11 LegendNANA
13:00 -3.2 -7.0 75 0.0 17 22   101.40   -10 LegendNANA
14:00 -3.4 -8.0 71 0.0 17 25   101.40   -10 LegendNANA
15:00 -3.7 -8.1 71 0.0 17 20   101.41   -10 LegendNANA
16:00 -3.7 -9.2 66 0.0 19 20   101.45   -10 LegendNANA
17:00 -3.9 -8.2 72 0.0 18 20   101.42   -10 LegendNANA
18:00 -4.2 -8.6 72 0.0 17 17   101.41   -10 LegendNANA
19:00 -4.4 -8.6 72 0.0 18 14   101.41   -10 LegendNANA
20:00 -4.2 -8.6 71 0.0 18 18   101.42   -10 LegendNANA
21:00 -3.7 -8.0 72 0.0 18 17   101.37   -9 LegendNANA
22:00 -4.4 -8.5 73 0.0 18 17   101.36   -10 LegendNANA
23:00 -5.0 -9.0 73 0.0 17 15   101.33   -11 LegendNANA

Notes on Data Quality.

Legend

  • E = Estimated
  • M = Missing
  • NA = Not Available*
  • [empty] = Indicates an unobserved value
Date modified: